Time,TemperatureF,DewpointF,PressureIn,WindDirection,WindDirectionDegrees,WindSpeedMPH,WindSpeedGustMPH,Humidity,HourlyPrecipIn,Conditions,Clouds,dailyrainin,SoftwareType,DateUTC
2013-03-15 00:00:00,35.4,20.4,29.88,North,0,0.0,0.0,54,0.00,,---,0.00,VWS V13.01,2013-03-15 04:00:00,
2013-03-15 00:05:00,35.2,20.3,29.88,North,0,0.0,0.0,54,0.00,,---,0.00,VWS V13.01,2013-03-15 04:05:00,
2013-03-15 00:10:00,35.2,20.3,29.88,North,0,0.0,0.0,54,0.00,,---,0.00,VWS V13.01,2013-03-15 04:10:00,
2013-03-15 00:15:00,35.1,20.1,29.88,North,0,0.0,0.0,54,0.00,,---,0.00,VWS V13.01,2013-03-15 04:15:00,
2013-03-15 00:20:00,34.9,19.9,29.88,North,0,0.0,0.0,54,0.00,,---,0.00,VWS V13.01,2013-03-15 04:20:00,
2013-03-15 00:25:00,34.7,19.8,29.88,North,0,0.0,0.0,54,0.00,,---,0.00,VWS V13.01,2013-03-15 04:25:00,
2013-03-15 00:30:00,34.7,19.8,29.88,North,0,0.0,0.0,54,0.00,,---,0.00,VWS V13.01,2013-03-15 04:30:00,
2013-03-15 00:35:00,34.9,19.9,29.88,North,0,0.0,0.0,54,0.00,,---,0.00,VWS V13.01,2013-03-15 04:35:00,
2013-03-15 00:40:00,34.5,19.6,29.88,North,0,0.0,0.0,54,0.00,,---,0.00,VWS V13.01,2013-03-15 04:40:00,
2013-03-15 00:45:00,34.3,19.4,29.88,North,0,0.0,0.0,54,0.00,,---,0.00,VWS V13.01,2013-03-15 04:45:00,
2013-03-15 00:50:00,34.0,19.1,29.88,North,0,0.0,0.0,54,0.00,,---,0.00,VWS V13.01,2013-03-15 04:50:00,
2013-03-15 00:55:00,34.0,19.1,29.88,North,0,0.0,0.0,54,0.00,,---,0.00,VWS V13.01,2013-03-15 04:55:00,
2013-03-15 01:00:00,34.0,19.1,29.88,North,0,0.0,0.0,54,0.00,,---,0.00,VWS V13.01,2013-03-15 05:00:00,
2013-03-15 01:05:00,34.2,19.3,29.88,North,0,0.0,0.0,54,0.00,,---,0.00,VWS V13.01,2013-03-15 05:05:00,
2013-03-15 01:10:00,34.2,19.3,29.88,North,0,0.0,0.0,54,0.00,,---,0.00,VWS V13.01,2013-03-15 05:10:00,
2013-03-15 01:16:00,34.3,19.4,29.88,North,0,0.0,0.0,54,0.00,,---,0.00,VWS V13.01,2013-03-15 05:16:00,
2013-03-15 01:21:00,34.3,19.4,29.88,North,0,0.0,0.0,54,0.00,,---,0.00,VWS V13.01,2013-03-15 05:21:00,
2013-03-15 01:26:00,34.3,19.4,29.88,North,0,0.0,0.0,54,0.00,,---,0.00,VWS V13.01,2013-03-15 05:26:00,
2013-03-15 01:31:00,34.5,19.6,29.88,North,0,0.0,0.0,54,0.00,,---,0.00,VWS V13.01,2013-03-15 05:31:00,
2013-03-15 01:36:00,34.5,19.6,29.88,North,0,0.0,0.0,54,0.00,,---,0.00,VWS V13.01,2013-03-15 05:36:00,
2013-03-15 01:41:00,34.7,19.8,29.88,North,0,0.0,0.0,54,0.00,,---,0.00,VWS V13.01,2013-03-15 05:41:00,
2013-03-15 01:46:00,34.9,19.9,29.88,North,0,0.0,0.0,54,0.00,,---,0.00,VWS V13.01,2013-03-15 05:46:00,
2013-03-15 01:51:00,34.9,19.9,29.88,North,0,0.0,0.0,54,0.00,,---,0.00,VWS V13.01,2013-03-15 05:51:00,
2013-03-15 01:56:00,34.9,19.9,29.88,North,0,0.0,0.0,54,0.00,,---,0.00,VWS V13.01,2013-03-15 05:56:00,
2013-03-15 02:01:00,34.9,19.9,29.88,North,0,0.0,0.0,54,0.00,,---,0.00,VWS V13.01,2013-03-15 06:01:00,
2013-03-15 02:06:00,34.9,19.9,29.88,North,0,0.0,0.0,54,0.00,,---,0.00,VWS V13.01,2013-03-15 06:06:00,
2013-03-15 02:11:00,34.9,19.9,29.88,North,0,0.0,0.0,54,0.00,,---,0.00,VWS V13.01,2013-03-15 06:11:00,
2013-03-15 02:16:00,35.1,20.1,29.88,North,0,0.0,0.0,54,0.00,,---,0.00,VWS V13.01,2013-03-15 06:16:00,
2013-03-15 02:21:00,35.4,20.4,29.88,North,0,0.0,0.0,54,0.00,,---,0.00,VWS V13.01,2013-03-15 06:21:00,
2013-03-15 02:26:00,35.1,20.1,29.88,North,0,0.0,0.0,54,0.00,,---,0.00,VWS V13.01,2013-03-15 06:26:00,
2013-03-15 02:31:00,35.1,20.1,29.88,North,0,0.0,0.0,54,0.00,,---,0.00,VWS V13.01,2013-03-15 06:31:00,
2013-03-15 02:36:00,34.7,19.8,29.88,North,0,0.0,0.0,54,0.00,,---,0.00,VWS V13.01,2013-03-15 06:36:00,
2013-03-15 02:41:00,34.7,19.8,29.88,North,0,0.0,0.0,54,0.00,,---,0.00,VWS V13.01,2013-03-15 06:41:00,
2013-03-15 02:46:00,34.5,19.6,29.88,North,0,0.0,0.0,54,0.00,,---,0.00,VWS V13.01,2013-03-15 06:46:00,
2013-03-15 02:51:00,34.9,19.9,29.88,North,0,0.0,0.0,54,0.00,,---,0.00,VWS V13.01,2013-03-15 06:51:00,
2013-03-15 02:56:00,34.7,19.8,29.88,North,0,0.0,0.0,54,0.00,,---,0.00,VWS V13.01,2013-03-15 06:56:00,
2013-03-15 03:01:00,34.7,19.8,29.88,North,0,0.0,0.0,54,0.00,,---,0.00,VWS V13.01,2013-03-15 07:01:00,
2013-03-15 03:06:00,34.7,19.8,29.88,North,0,0.0,0.0,54,0.00,,---,0.00,VWS V13.01,2013-03-15 07:06:00,
2013-03-15 03:11:00,34.7,19.8,29.88,North,0,0.0,0.0,54,0.00,,---,0.00,VWS V13.01,2013-03-15 07:11:00,
2013-03-15 03:16:00,34.5,19.6,29.88,North,0,0.0,0.0,54,0.00,,---,0.00,VWS V13.01,2013-03-15 07:16:00,
2013-03-15 03:21:00,34.3,19.4,29.88,North,0,0.0,0.0,54,0.00,,---,0.00,VWS V13.01,2013-03-15 07:21:00,
2013-03-15 03:26:00,34.3,19.4,29.88,North,0,0.0,0.0,54,0.00,,---,0.00,VWS V13.01,2013-03-15 07:26:00,
2013-03-15 03:31:00,34.3,19.4,29.88,North,0,0.0,0.0,54,0.00,,---,0.00,VWS V13.01,2013-03-15 07:31:00,
2013-03-15 03:36:00,34.3,19.4,29.88,North,0,0.0,0.0,54,0.00,,---,0.00,VWS V13.01,2013-03-15 07:36:00,
2013-03-15 03:41:00,34.2,19.3,29.88,North,0,0.0,0.0,54,0.00,,---,0.00,VWS V13.01,2013-03-15 07:41:00,
2013-03-15 03:46:00,34.0,19.1,29.88,North,0,0.0,0.0,54,0.00,,---,0.00,VWS V13.01,2013-03-15 07:46:00,
2013-03-15 03:51:00,33.8,18.9,29.88,North,0,0.0,0.0,54,0.00,,---,0.00,VWS V13.01,2013-03-15 07:51:00,
2013-03-15 03:56:00,33.4,19.0,29.88,North,0,0.0,0.0,55,0.00,,---,0.00,VWS V13.01,2013-03-15 07:56:00,
2013-03-15 04:02:00,33.4,19.0,29.88,North,0,0.0,0.0,55,0.00,,---,0.00,VWS V13.01,2013-03-15 08:02:00,
2013-03-15 04:07:00,33.3,18.9,29.88,North,0,0.0,0.0,55,0.00,,---,0.00,VWS V13.01,2013-03-15 08:07:00,
2013-03-15 04:12:00,33.3,18.9,29.88,North,0,0.0,0.0,55,0.00,,---,0.00,VWS V13.01,2013-03-15 08:12:00,
2013-03-15 04:17:00,33.1,18.7,29.88,North,0,0.0,0.0,55,0.00,,---,0.00,VWS V13.01,2013-03-15 08:17:00,
2013-03-15 04:22:00,32.9,18.5,29.88,North,0,0.0,0.0,55,0.00,,---,0.00,VWS V13.01,2013-03-15 08:22:00,
2013-03-15 04:27:00,32.5,18.2,29.88,North,0,0.0,0.0,55,0.00,,---,0.00,VWS V13.01,2013-03-15 08:27:00,
2013-03-15 04:32:00,32.4,18.0,29.88,North,0,0.0,0.0,55,0.00,,---,0.00,VWS V13.01,2013-03-15 08:32:00,
2013-03-15 04:37:00,32.2,17.8,29.88,North,0,0.0,0.0,55,0.00,,---,0.00,VWS V13.01,2013-03-15 08:37:00,
2013-03-15 04:42:00,32.4,18.0,29.88,North,0,0.0,0.0,55,0.00,,---,0.00,VWS V13.01,2013-03-15 08:42:00,
2013-03-15 04:47:00,32.5,18.2,29.88,North,0,0.0,0.0,55,0.00,,---,0.00,VWS V13.01,2013-03-15 08:47:00,
2013-03-15 04:52:00,32.5,18.2,29.88,North,0,0.0,0.0,55,0.00,,---,0.00,VWS V13.01,2013-03-15 08:52:00,
2013-03-15 04:57:00,32.4,18.0,29.88,North,0,0.0,0.0,55,0.00,,---,0.00,VWS V13.01,2013-03-15 08:57:00,
2013-03-15 05:02:00,32.2,17.8,29.88,North,0,0.0,0.0,55,0.00,,---,0.00,VWS V13.01,2013-03-15 09:02:00,
2013-03-15 05:07:00,32.4,18.0,29.88,North,0,0.0,0.0,55,0.00,,---,0.00,VWS V13.01,2013-03-15 09:07:00,
2013-03-15 05:12:00,32.2,17.8,29.88,North,0,0.0,0.0,55,0.00,,---,0.00,VWS V13.01,2013-03-15 09:12:00,
2013-03-15 05:17:00,32.2,17.8,29.88,North,0,0.0,0.0,55,0.00,,---,0.00,VWS V13.01,2013-03-15 09:17:00,
2013-03-15 05:22:00,32.0,17.7,29.88,North,0,0.0,0.0,55,0.00,,---,0.00,VWS V13.01,2013-03-15 09:22:00,
2013-03-15 05:27:00,31.8,17.5,29.88,North,0,0.0,0.0,55,0.00,,---,0.00,VWS V13.01,2013-03-15 09:27:00,
2013-03-15 05:32:00,31.6,17.3,29.88,North,0,0.0,0.0,55,0.00,,---,0.00,VWS V13.01,2013-03-15 09:32:00,
2013-03-15 05:37:00,31.3,17.0,29.88,North,0,0.0,0.0,55,0.00,,---,0.00,VWS V13.01,2013-03-15 09:37:00,
2013-03-15 05:42:00,31.3,17.0,29.88,North,0,0.0,0.0,55,0.00,,---,0.00,VWS V13.01,2013-03-15 09:42:00,
2013-03-15 05:47:00,31.1,16.8,29.88,North,0,0.0,0.0,55,0.00,,---,0.00,VWS V13.01,2013-03-15 09:47:00,
2013-03-15 05:52:00,30.9,16.7,29.88,North,0,0.0,0.0,55,0.00,,---,0.00,VWS V13.01,2013-03-15 09:52:00,
2013-03-15 05:57:00,30.7,16.5,29.88,North,0,0.0,0.0,55,0.00,,---,0.00,VWS V13.01,2013-03-15 09:57:00,
2013-03-15 06:02:00,30.6,16.3,29.88,North,0,0.0,0.0,55,0.00,,---,0.00,VWS V13.01,2013-03-15 10:02:00,
2013-03-15 06:07:00,30.4,16.2,29.88,North,0,0.0,0.0,55,0.00,,---,0.00,VWS V13.01,2013-03-15 10:07:00,
2013-03-15 06:12:00,30.2,16.8,29.88,North,0,0.0,0.0,57,0.00,,---,0.00,VWS V13.01,2013-03-15 10:12:00,
2013-03-15 06:17:00,30.2,16.8,29.88,North,0,0.0,0.0,57,0.00,,---,0.00,VWS V13.01,2013-03-15 10:17:00,
2013-03-15 06:22:00,30.4,17.0,29.88,North,0,0.0,0.0,57,0.00,,---,0.00,VWS V13.01,2013-03-15 10:22:00,
2013-03-15 06:27:00,30.4,17.0,29.88,North,0,0.0,0.0,57,0.00,,---,0.00,VWS V13.01,2013-03-15 10:27:00,
2013-03-15 06:32:00,30.2,16.8,29.88,North,0,0.0,0.0,57,0.00,,---,0.00,VWS V13.01,2013-03-15 10:32:00,
2013-03-15 06:37:00,30.2,16.8,29.88,North,0,0.0,0.0,57,0.00,,---,0.00,VWS V13.01,2013-03-15 10:37:00,
2013-03-15 06:42:00,30.2,16.8,29.88,North,0,0.0,0.0,57,0.00,,---,0.00,VWS V13.01,2013-03-15 10:42:00,
2013-03-15 06:47:00,30.2,16.8,29.88,North,0,0.0,0.0,57,0.00,,---,0.00,VWS V13.01,2013-03-15 10:47:00,
2013-03-15 06:52:00,30.2,16.8,29.88,North,0,0.0,0.0,57,0.00,,---,0.00,VWS V13.01,2013-03-15 10:52:00,
2013-03-15 06:57:00,30.0,17.8,29.88,North,0,0.0,0.0,60,0.00,,---,0.00,VWS V13.01,2013-03-15 10:57:00,
2013-03-15 07:02:00,30.0,17.8,29.88,North,0,0.0,0.0,60,0.00,,---,0.00,VWS V13.01,2013-03-15 11:02:00,
2013-03-15 07:07:00,29.8,17.7,29.88,North,0,0.0,0.0,60,0.00,,---,0.00,VWS V13.01,2013-03-15 11:07:00,
2013-03-15 07:12:00,29.8,17.7,29.88,North,0,0.0,0.0,60,0.00,,---,0.00,VWS V13.01,2013-03-15 11:12:00,
2013-03-15 07:17:00,29.7,17.5,29.88,North,0,0.0,0.0,60,0.00,,---,0.00,VWS V13.01,2013-03-15 11:17:00,
2013-03-15 07:22:00,29.8,18.4,29.88,North,0,0.0,0.0,62,0.00,,---,0.00,VWS V13.01,2013-03-15 11:22:00,
2013-03-15 07:27:00,29.8,18.4,29.88,North,0,0.0,0.0,62,0.00,,---,0.00,VWS V13.01,2013-03-15 11:27:00,
2013-03-15 07:32:00,30.0,18.6,29.88,North,0,0.0,0.0,62,0.00,,---,0.00,VWS V13.01,2013-03-15 11:32:00,
2013-03-15 07:37:00,30.2,18.8,29.88,North,0,0.0,0.0,62,0.00,,---,0.00,VWS V13.01,2013-03-15 11:37:00,
2013-03-15 07:42:00,30.4,18.9,29.88,North,0,0.0,0.0,62,0.00,,---,0.00,VWS V13.01,2013-03-15 11:42:00,
2013-03-15 07:47:00,30.4,18.9,29.88,North,0,0.0,0.0,62,0.00,,---,0.00,VWS V13.01,2013-03-15 11:47:00,
2013-03-15 07:52:00,31.1,18.9,29.88,North,0,0.0,0.0,60,0.00,,---,0.00,VWS V13.01,2013-03-15 11:52:00,
2013-03-15 07:57:00,31.3,19.0,29.88,North,0,0.0,0.0,60,0.00,,---,0.00,VWS V13.01,2013-03-15 11:57:00,
2013-03-15 08:02:00,31.5,19.2,29.88,North,0,0.0,0.0,60,0.00,,---,0.00,VWS V13.01,2013-03-15 12:02:00,
2013-03-15 08:07:00,32.2,18.7,29.88,North,0,0.0,0.0,57,0.00,,---,0.00,VWS V13.01,2013-03-15 12:07:00,
2013-03-15 08:12:00,32.7,19.2,29.88,North,0,0.0,0.0,57,0.00,,---,0.00,VWS V13.01,2013-03-15 12:12:00,
2013-03-15 08:17:00,33.1,18.7,29.88,North,0,0.0,0.0,55,0.00,,---,0.00,VWS V13.01,2013-03-15 12:17:00,
2013-03-15 08:22:00,33.3,18.9,29.88,North,0,0.0,0.0,55,0.00,,---,0.00,VWS V13.01,2013-03-15 12:22:00,
2013-03-15 08:27:00,34.0,19.1,29.88,North,0,0.0,0.0,54,0.00,,---,0.00,VWS V13.01,2013-03-15 12:27:00,
2013-03-15 08:32:00,34.5,19.6,29.88,North,0,0.0,0.0,54,0.00,,---,0.00,VWS V13.01,2013-03-15 12:32:00,
2013-03-15 08:37:00,34.9,19.9,29.88,North,0,4.5,4.5,54,0.00,,---,0.00,VWS V13.01,2013-03-15 12:37:00,
2013-03-15 08:42:00,35.4,20.4,29.88,North,0,0.0,0.0,54,0.00,,---,0.00,VWS V13.01,2013-03-15 12:42:00,
2013-03-15 08:47:00,35.6,20.6,29.88,North,0,0.0,0.0,54,0.00,,---,0.00,VWS V13.01,2013-03-15 12:47:00,
2013-03-15 08:52:00,36.0,21.0,29.88,North,0,0.0,0.0,54,0.00,,---,0.00,VWS V13.01,2013-03-15 12:52:00,
2013-03-15 08:57:00,36.3,21.3,29.88,North,0,0.0,0.0,54,0.00,,---,0.00,VWS V13.01,2013-03-15 12:57:00,
2013-03-15 09:02:00,36.7,21.6,29.88,North,0,0.0,2.7,54,0.00,,---,0.00,VWS V13.01,2013-03-15 13:02:00,
2013-03-15 09:07:00,37.0,22.0,29.88,North,0,0.0,0.0,54,0.00,,---,0.00,VWS V13.01,2013-03-15 13:07:00,
2013-03-15 09:12:00,37.6,22.0,29.88,North,0,0.0,0.0,53,0.00,,---,0.00,VWS V13.01,2013-03-15 13:12:00,
2013-03-15 09:17:00,37.9,22.4,29.88,North,0,6.3,6.3,53,0.00,,---,0.00,VWS V13.01,2013-03-15 13:17:00,
2013-03-15 09:22:00,38.5,22.9,29.88,North,0,0.0,0.0,53,0.00,,---,0.00,VWS V13.01,2013-03-15 13:22:00,
2013-03-15 09:27:00,38.8,23.2,29.88,North,0,0.0,0.0,53,0.00,,---,0.00,VWS V13.01,2013-03-15 13:27:00,
2013-03-15 09:32:00,39.2,23.5,29.88,NNW,338,0.0,0.0,53,0.00,,---,0.00,VWS V13.01,2013-03-15 13:32:00,
2013-03-15 09:37:00,39.7,24.0,29.88,NW,315,0.0,2.2,53,0.00,,---,0.00,VWS V13.01,2013-03-15 13:37:00,
2013-03-15 09:42:00,40.3,24.5,29.88,NW,315,0.0,0.0,53,0.00,,---,0.00,VWS V13.01,2013-03-15 13:42:00,
2013-03-15 09:47:00,40.5,24.7,29.88,NW,315,0.0,2.2,53,0.00,,---,0.00,VWS V13.01,2013-03-15 13:47:00,
2013-03-15 09:52:00,41.0,25.2,29.88,NW,315,0.0,2.2,53,0.00,,---,0.00,VWS V13.01,2013-03-15 13:52:00,
2013-03-15 09:57:00,41.4,25.5,29.88,NW,315,6.3,6.3,53,0.00,,---,0.00,VWS V13.01,2013-03-15 13:57:00,
2013-03-15 10:02:00,41.7,25.9,29.85,NW,315,5.4,5.4,53,0.00,,---,0.00,VWS V13.01,2013-03-15 14:02:00,
2013-03-15 10:07:00,42.1,26.2,29.85,NW,315,4.5,4.9,53,0.00,,---,0.00,VWS V13.01,2013-03-15 14:07:00,
2013-03-15 10:12:00,42.4,26.5,29.85,North,0,0.0,0.0,53,0.00,,---,0.00,VWS V13.01,2013-03-15 14:12:00,
2013-03-15 10:17:00,42.8,26.4,29.85,North,0,7.2,7.2,52,0.00,,---,0.00,VWS V13.01,2013-03-15 14:17:00,
2013-03-15 10:22:00,43.0,26.6,29.88,NW,315,0.0,2.2,52,0.00,,---,0.00,VWS V13.01,2013-03-15 14:22:00,
2013-03-15 10:27:00,43.3,26.9,29.88,NW,315,10.7,10.7,52,0.00,,---,0.00,VWS V13.01,2013-03-15 14:27:00,
2013-03-15 10:32:00,43.3,26.9,29.88,NW,315,5.4,5.4,52,0.00,,---,0.00,VWS V13.01,2013-03-15 14:32:00,
2013-03-15 10:37:00,43.7,27.2,29.88,North,0,5.4,5.4,52,0.00,,---,0.00,VWS V13.01,2013-03-15 14:37:00,
2013-03-15 10:42:00,44.1,27.6,29.85,North,0,6.3,6.3,52,0.00,,---,0.00,VWS V13.01,2013-03-15 14:42:00,
2013-03-15 10:47:00,44.2,27.7,29.85,NW,315,7.2,7.2,52,0.00,,---,0.00,VWS V13.01,2013-03-15 14:47:00,
2013-03-15 10:52:00,44.6,28.1,29.85,North,0,4.5,4.5,52,0.00,,---,0.00,VWS V13.01,2013-03-15 14:52:00,
2013-03-15 10:57:00,44.6,28.1,29.85,North,0,9.8,9.8,52,0.00,,---,0.00,VWS V13.01,2013-03-15 14:57:00,
2013-03-15 11:02:00,45.3,28.8,29.85,NW,315,0.0,0.0,52,0.00,,---,0.00,VWS V13.01,2013-03-15 15:02:00,
2013-03-15 11:07:00,45.9,29.2,29.85,North,0,0.0,0.0,52,0.00,,---,0.00,VWS V13.01,2013-03-15 15:07:00,
2013-03-15 11:12:00,46.0,29.4,29.85,North,0,5.4,5.4,52,0.00,,---,0.00,VWS V13.01,2013-03-15 15:12:00,
2013-03-15 11:17:00,46.4,29.3,29.85,NW,315,8.1,8.1,51,0.00,,---,0.00,VWS V13.01,2013-03-15 15:17:00,
2013-03-15 11:22:00,46.4,29.3,29.85,NW,315,0.0,4.0,51,0.00,,---,0.00,VWS V13.01,2013-03-15 15:22:00,
2013-03-15 11:27:00,47.1,29.9,29.85,North,0,6.3,6.3,51,0.00,,---,0.00,VWS V13.01,2013-03-15 15:27:00,
2013-03-15 11:32:00,47.7,30.4,29.85,NNE,22,0.0,0.0,51,0.00,,---,0.00,VWS V13.01,2013-03-15 15:32:00,
2013-03-15 11:37:00,48.0,30.8,29.85,NE,45,10.7,10.7,51,0.00,,---,0.00,VWS V13.01,2013-03-15 15:37:00,
2013-03-15 11:42:00,47.8,30.6,29.85,West,270,9.8,9.8,51,0.00,,---,0.00,VWS V13.01,2013-03-15 15:42:00,
2013-03-15 11:47:00,48.0,30.8,29.85,NW,315,6.3,6.3,51,0.00,,---,0.00,VWS V13.01,2013-03-15 15:47:00,
2013-03-15 11:52:00,48.0,30.8,29.85,NW,315,8.1,8.1,51,0.00,,---,0.00,VWS V13.01,2013-03-15 15:52:00,
2013-03-15 11:57:00,48.6,31.3,29.85,NW,315,7.2,7.2,51,0.00,,---,0.00,VWS V13.01,2013-03-15 15:57:00,
2013-03-15 12:02:00,48.9,31.6,29.85,NW,315,9.8,9.8,51,0.00,,---,0.00,VWS V13.01,2013-03-15 16:02:00,
2013-03-15 12:08:00,48.7,31.4,29.85,NW,315,11.6,11.6,51,0.00,,---,0.00,VWS V13.01,2013-03-15 16:08:00,
2013-03-15 12:13:00,49.1,31.8,29.82,NW,315,5.4,5.4,51,0.00,,---,0.00,VWS V13.01,2013-03-15 16:13:00,
2013-03-15 12:18:00,49.6,32.3,29.82,NW,315,15.2,15.2,51,0.00,,---,0.00,VWS V13.01,2013-03-15 16:18:00,
2013-03-15 12:23:00,50.0,32.6,29.82,NNW,338,8.1,8.1,51,0.00,,---,0.00,VWS V13.01,2013-03-15 16:23:00,
2013-03-15 12:28:00,51.6,34.1,29.79,West,270,0.0,0.0,51,0.00,,---,0.00,VWS V13.01,2013-03-15 16:28:00,
2013-03-15 12:33:00,51.4,33.9,29.79,NW,315,5.4,5.4,51,0.00,,---,0.00,VWS V13.01,2013-03-15 16:33:00,
2013-03-15 12:38:00,52.2,34.1,29.79,NW,315,15.2,15.2,50,0.00,,---,0.00,VWS V13.01,2013-03-15 16:38:00,
2013-03-15 12:43:00,51.6,34.1,29.79,NW,315,8.1,8.1,51,0.00,,---,0.00,VWS V13.01,2013-03-15 16:43:00,
2013-03-15 12:47:00,52.7,34.6,29.79,NW,315,0.0,2.7,50,0.00,,---,0.00,VWS V13.01,2013-03-15 16:47:00,
2013-03-15 12:52:00,53.1,34.9,29.79,North,0,6.3,6.3,50,0.00,,---,0.00,VWS V13.01,2013-03-15 16:52:00,
2013-03-15 12:58:00,53.2,35.1,29.79,North,0,6.3,6.3,50,0.00,,---,0.00,VWS V13.01,2013-03-15 16:58:00,
2013-03-15 13:03:00,53.4,35.3,29.79,North,0,8.1,8.1,50,0.00,,---,0.00,VWS V13.01,2013-03-15 17:03:00,
2013-03-15 13:08:00,53.6,35.4,29.79,NW,315,5.4,5.4,50,0.00,,---,0.00,VWS V13.01,2013-03-15 17:08:00,
2013-03-15 13:13:00,54.0,35.8,29.79,NW,315,7.2,7.2,50,0.00,,---,0.00,VWS V13.01,2013-03-15 17:13:00,
2013-03-15 13:18:00,54.3,36.1,29.79,NE,45,7.2,7.2,50,0.00,,---,0.00,VWS V13.01,2013-03-15 17:18:00,
2013-03-15 13:23:00,54.3,36.1,29.79,NW,315,5.4,5.4,50,0.00,,---,0.00,VWS V13.01,2013-03-15 17:23:00,
2013-03-15 13:28:00,53.1,34.9,29.79,West,270,9.8,9.8,50,0.00,,---,0.00,VWS V13.01,2013-03-15 17:28:00,
2013-03-15 13:33:00,54.1,35.9,29.79,North,0,0.0,0.0,50,0.00,,---,0.00,VWS V13.01,2013-03-15 17:33:00,
2013-03-15 13:38:00,54.0,35.8,29.79,NW,315,9.8,9.8,50,0.00,,---,0.00,VWS V13.01,2013-03-15 17:38:00,
2013-03-15 13:44:00,54.1,35.9,29.79,West,270,7.2,7.2,50,0.00,,---,0.00,VWS V13.01,2013-03-15 17:44:00,
2013-03-15 13:49:00,54.7,36.4,29.79,NW,315,8.1,8.1,50,0.00,,---,0.00,VWS V13.01,2013-03-15 17:49:00,
2013-03-15 13:54:00,54.5,36.3,29.79,NW,315,5.4,5.4,50,0.00,,---,0.00,VWS V13.01,2013-03-15 17:54:00,
2013-03-15 13:59:00,54.1,35.9,29.79,NW,315,11.6,11.6,50,0.00,,---,0.00,VWS V13.01,2013-03-15 17:59:00,
2013-03-15 14:04:00,54.5,36.3,29.79,NW,315,16.1,16.1,50,0.00,,---,0.00,VWS V13.01,2013-03-15 18:04:00,
2013-03-15 14:09:00,54.5,36.3,29.74,NW,315,12.5,12.5,50,0.00,,---,0.00,VWS V13.01,2013-03-15 18:09:00,
2013-03-15 14:14:00,54.9,36.6,29.74,NE,45,4.5,5.8,50,0.00,,---,0.00,VWS V13.01,2013-03-15 18:14:00,
2013-03-15 14:19:00,55.9,37.1,29.74,North,0,7.2,7.2,49,0.00,,---,0.00,VWS V13.01,2013-03-15 18:19:00,
2013-03-15 14:24:00,56.1,37.2,29.74,North,0,11.6,11.6,49,0.00,,---,0.00,VWS V13.01,2013-03-15 18:24:00,
2013-03-15 14:29:00,56.5,37.6,29.74,West,270,7.2,7.2,49,0.00,,---,0.00,VWS V13.01,2013-03-15 18:29:00,
2013-03-15 14:34:00,56.7,37.7,29.74,NNW,338,0.0,4.9,49,0.00,,---,0.00,VWS V13.01,2013-03-15 18:34:00,
2013-03-15 14:39:00,56.3,37.4,29.74,West,270,5.4,5.8,49,0.00,,---,0.00,VWS V13.01,2013-03-15 18:39:00,
2013-03-15 14:44:00,56.3,37.4,29.71,West,270,5.4,5.4,49,0.00,,---,0.00,VWS V13.01,2013-03-15 18:44:00,
2013-03-15 14:49:00,56.7,37.7,29.71,NW,315,11.6,11.6,49,0.00,,---,0.00,VWS V13.01,2013-03-15 18:49:00,
2013-03-15 14:54:00,56.7,37.7,29.71,NW,315,8.1,8.1,49,0.00,,---,0.00,VWS V13.01,2013-03-15 18:54:00,
2013-03-15 14:59:00,56.8,37.9,29.71,NW,315,10.7,10.7,49,0.00,,---,0.00,VWS V13.01,2013-03-15 18:59:00,
2013-03-15 15:04:00,57.4,38.4,29.71,NE,45,7.2,7.2,49,0.00,,---,0.00,VWS V13.01,2013-03-15 19:04:00,
2013-03-15 15:09:00,57.7,38.7,29.71,NW,315,5.4,5.4,49,0.00,,---,0.00,VWS V13.01,2013-03-15 19:09:00,
2013-03-15 15:14:00,58.1,39.1,29.68,NW,315,7.2,7.2,49,0.00,,---,0.00,VWS V13.01,2013-03-15 19:14:00,
2013-03-15 15:19:00,58.6,39.5,29.68,NW,315,6.3,6.3,49,0.00,,---,0.00,VWS V13.01,2013-03-15 19:19:00,
2013-03-15 15:23:00,58.3,39.2,29.68,North,0,5.4,5.4,49,0.00,,---,0.00,VWS V13.01,2013-03-15 19:23:00,
2013-03-15 15:29:00,58.8,39.7,29.68,NW,315,9.8,9.8,49,0.00,,---,0.00,VWS V13.01,2013-03-15 19:29:00,
2013-03-15 15:34:00,58.3,39.2,29.68,NW,315,9.8,9.8,49,0.00,,---,0.00,VWS V13.01,2013-03-15 19:34:00,
2013-03-15 15:39:00,58.1,39.1,29.68,NW,315,8.1,8.7,49,0.00,,---,0.00,VWS V13.01,2013-03-15 19:39:00,
2013-03-15 15:44:00,57.9,38.9,29.68,NW,315,6.3,6.3,49,0.00,,---,0.00,VWS V13.01,2013-03-15 19:44:00,
2013-03-15 15:49:00,58.3,39.2,29.68,East,90,8.1,8.1,49,0.00,,---,0.00,VWS V13.01,2013-03-15 19:49:00,
2013-03-15 15:54:00,58.5,39.4,29.68,NW,315,8.1,8.1,49,0.00,,---,0.00,VWS V13.01,2013-03-15 19:54:00,
2013-03-15 15:59:00,58.6,39.5,29.68,NW,315,7.2,8.3,49,0.00,,---,0.00,VWS V13.01,2013-03-15 19:59:00,
2013-03-15 16:04:00,58.6,39.5,29.68,NW,315,7.2,8.1,49,0.00,,---,0.00,VWS V13.01,2013-03-15 20:04:00,
2013-03-15 16:09:00,59.0,39.9,29.68,NW,315,9.8,9.8,49,0.00,,---,0.00,VWS V13.01,2013-03-15 20:09:00,
2013-03-15 16:14:00,59.0,39.9,29.65,East,90,7.2,7.2,49,0.00,,---,0.00,VWS V13.01,2013-03-15 20:14:00,
2013-03-15 16:19:00,58.8,39.7,29.65,WNW,292,7.2,7.2,49,0.00,,---,0.00,VWS V13.01,2013-03-15 20:19:00,
2013-03-15 16:24:00,58.6,39.5,29.65,NW,315,8.1,8.1,49,0.00,,---,0.00,VWS V13.01,2013-03-15 20:24:00,
2013-03-15 16:29:00,58.5,39.4,29.65,NW,315,5.4,5.4,49,0.00,,---,0.00,VWS V13.01,2013-03-15 20:29:00,
2013-03-15 16:34:00,58.6,39.5,29.65,WNW,292,7.2,7.2,49,0.00,,---,0.00,VWS V13.01,2013-03-15 20:34:00,
2013-03-15 16:39:00,58.3,39.2,29.65,NW,315,8.1,8.1,49,0.00,,---,0.00,VWS V13.01,2013-03-15 20:39:00,
2013-03-15 16:44:00,58.3,39.2,29.65,NW,315,5.4,5.4,49,0.00,,---,0.00,VWS V13.01,2013-03-15 20:44:00,
2013-03-15 16:49:00,58.3,39.2,29.65,NW,315,6.3,6.3,49,0.00,,---,0.00,VWS V13.01,2013-03-15 20:49:00,
2013-03-15 16:54:00,58.3,39.2,29.65,NW,315,8.1,8.1,49,0.00,,---,0.00,VWS V13.01,2013-03-15 20:54:00,
2013-03-15 16:59:00,58.3,39.2,29.65,North,0,0.0,3.6,49,0.00,,---,0.00,VWS V13.01,2013-03-15 20:59:00,
2013-03-15 17:04:00,58.3,39.2,29.65,NW,315,5.4,5.4,49,0.00,,---,0.00,VWS V13.01,2013-03-15 21:04:00,
2013-03-15 17:09:00,58.5,39.4,29.65,West,270,6.3,6.3,49,0.00,,---,0.00,VWS V13.01,2013-03-15 21:09:00,
2013-03-15 17:14:00,58.6,39.5,29.62,NNW,338,15.2,15.2,49,0.00,,---,0.00,VWS V13.01,2013-03-15 21:14:00,
2013-03-15 17:19:00,58.3,39.2,29.62,North,0,0.0,3.6,49,0.00,,---,0.00,VWS V13.01,2013-03-15 21:19:00,
2013-03-15 17:24:00,58.3,39.2,29.62,NW,315,10.7,10.7,49,0.00,,---,0.00,VWS V13.01,2013-03-15 21:24:00,
2013-03-15 17:29:00,58.3,39.2,29.65,NW,315,13.4,13.4,49,0.00,,---,0.00,VWS V13.01,2013-03-15 21:29:00,
2013-03-15 17:34:00,58.3,39.2,29.65,NW,315,14.3,14.3,49,0.00,,---,0.00,VWS V13.01,2013-03-15 21:34:00,
2013-03-15 17:39:00,58.1,39.1,29.65,NW,315,0.0,5.8,49,0.00,,---,0.00,VWS V13.01,2013-03-15 21:39:00,
2013-03-15 17:44:00,58.1,39.1,29.62,NW,315,4.5,4.5,49,0.00,,---,0.00,VWS V13.01,2013-03-15 21:44:00,
2013-03-15 17:49:00,58.1,39.1,29.62,NW,315,9.8,9.8,49,0.00,,---,0.00,VWS V13.01,2013-03-15 21:49:00,
2013-03-15 17:54:00,58.1,39.1,29.62,North,0,4.5,4.5,49,0.00,,---,0.00,VWS V13.01,2013-03-15 21:54:00,
2013-03-15 17:59:00,58.1,39.1,29.62,North,0,4.5,4.5,49,0.00,,---,0.00,VWS V13.01,2013-03-15 21:59:00,
2013-03-15 18:04:00,57.9,38.9,29.62,NW,315,7.2,7.2,49,0.00,,---,0.00,VWS V13.01,2013-03-15 22:04:00,
2013-03-15 18:09:00,57.7,38.7,29.62,NW,315,6.3,6.3,49,0.00,,---,0.00,VWS V13.01,2013-03-15 22:09:00,
2013-03-15 18:14:00,57.6,38.6,29.62,NW,315,5.4,5.4,49,0.00,,---,0.00,VWS V13.01,2013-03-15 22:14:00,
2013-03-15 18:19:00,57.6,38.6,29.62,NW,315,6.3,6.3,49,0.00,,---,0.00,VWS V13.01,2013-03-15 22:19:00,
2013-03-15 18:24:00,57.6,38.6,29.62,NNW,338,0.0,4.0,49,0.00,,---,0.00,VWS V13.01,2013-03-15 22:24:00,
2013-03-15 18:29:00,57.4,38.4,29.62,West,270,4.5,4.5,49,0.00,,---,0.00,VWS V13.01,2013-03-15 22:29:00,
2013-03-15 18:34:00,57.4,38.4,29.62,NNW,338,7.2,7.2,49,0.00,,---,0.00,VWS V13.01,2013-03-15 22:34:00,
2013-03-15 18:39:00,57.4,38.4,29.62,NNW,338,5.4,5.4,49,0.00,,---,0.00,VWS V13.01,2013-03-15 22:39:00,
2013-03-15 18:44:00,57.4,38.4,29.62,NW,315,0.0,2.7,49,0.00,,---,0.00,VWS V13.01,2013-03-15 22:44:00,
2013-03-15 18:49:00,57.2,38.2,29.62,NW,315,0.0,0.0,49,0.00,,---,0.00,VWS V13.01,2013-03-15 22:49:00,
2013-03-15 18:54:00,57.2,38.2,29.62,NW,315,0.0,0.0,49,0.00,,---,0.00,VWS V13.01,2013-03-15 22:54:00,
2013-03-15 18:59:00,57.0,38.1,29.62,NW,315,0.0,0.0,49,0.00,,---,0.00,VWS V13.01,2013-03-15 22:59:00,
2013-03-15 19:04:00,56.8,37.9,29.62,NW,315,0.0,0.0,49,0.00,,---,0.00,VWS V13.01,2013-03-15 23:04:00,
2013-03-15 19:09:00,56.7,37.7,29.62,NW,315,0.0,0.0,49,0.00,,---,0.00,VWS V13.01,2013-03-15 23:09:00,
2013-03-15 19:14:00,56.5,37.6,29.62,NW,315,0.0,0.0,49,0.00,,---,0.00,VWS V13.01,2013-03-15 23:14:00,
2013-03-15 19:19:00,56.1,37.2,29.62,NW,315,0.0,0.0,49,0.00,,---,0.00,VWS V13.01,2013-03-15 23:19:00,
2013-03-15 19:24:00,55.8,36.9,29.62,NW,315,0.0,0.0,49,0.00,,---,0.00,VWS V13.01,2013-03-15 23:24:00,
2013-03-15 19:29:00,55.4,36.6,29.62,NW,315,0.0,0.0,49,0.00,,---,0.00,VWS V13.01,2013-03-15 23:29:00,
2013-03-15 19:34:00,55.0,36.8,29.62,NW,315,0.0,0.0,50,0.00,,---,0.00,VWS V13.01,2013-03-15 23:34:00,
2013-03-15 19:39:00,54.7,36.4,29.62,NW,315,0.0,0.0,50,0.00,,---,0.00,VWS V13.01,2013-03-15 23:39:00,
2013-03-15 19:44:00,54.5,36.3,29.62,NW,315,0.0,0.0,50,0.00,,---,0.00,VWS V13.01,2013-03-15 23:44:00,
2013-03-15 19:49:00,54.3,36.1,29.62,NW,315,0.0,0.0,50,0.00,,---,0.00,VWS V13.01,2013-03-15 23:49:00,
2013-03-15 19:54:00,54.0,35.8,29.62,NW,315,0.0,0.0,50,0.00,,---,0.00,VWS V13.01,2013-03-15 23:54:00,
2013-03-15 19:59:00,54.0,35.8,29.62,NW,315,0.0,0.0,50,0.00,,---,0.00,VWS V13.01,2013-03-15 23:59:00,
2013-03-15 20:04:00,54.0,35.8,29.62,NW,315,0.0,0.0,50,0.00,,---,0.00,VWS V13.01,2013-03-16 00:04:00,
2013-03-15 20:09:00,53.6,35.4,29.62,NW,315,0.0,0.0,50,0.00,,---,0.00,VWS V13.01,2013-03-16 00:09:00,
2013-03-15 20:14:00,53.4,35.3,29.62,NW,315,0.0,0.0,50,0.00,,---,0.00,VWS V13.01,2013-03-16 00:14:00,
2013-03-15 20:19:00,53.1,34.9,29.62,NW,315,0.0,0.0,50,0.00,,---,0.00,VWS V13.01,2013-03-16 00:19:00,
2013-03-15 20:24:00,52.7,34.6,29.62,NW,315,0.0,0.0,50,0.00,,---,0.00,VWS V13.01,2013-03-16 00:24:00,
2013-03-15 20:29:00,52.3,34.3,29.62,NW,315,0.0,0.0,50,0.00,,---,0.00,VWS V13.01,2013-03-16 00:29:00,
2013-03-15 20:34:00,52.0,33.9,29.62,NW,315,0.0,0.0,50,0.00,,---,0.00,VWS V13.01,2013-03-16 00:34:00,
2013-03-15 20:39:00,51.8,33.8,29.62,NW,315,0.0,0.0,50,0.00,,---,0.00,VWS V13.01,2013-03-16 00:39:00,
2013-03-15 20:44:00,51.6,34.1,29.62,NW,315,0.0,0.0,51,0.00,,---,0.00,VWS V13.01,2013-03-16 00:44:00,
2013-03-15 20:49:00,51.1,33.6,29.62,NW,315,0.0,0.0,51,0.00,,---,0.00,VWS V13.01,2013-03-16 00:49:00,
2013-03-15 20:54:00,50.9,33.4,29.62,NW,315,0.0,0.0,51,0.00,,---,0.00,VWS V13.01,2013-03-16 00:54:00,
2013-03-15 20:59:00,50.7,33.3,29.62,NW,315,0.0,0.0,51,0.00,,---,0.00,VWS V13.01,2013-03-16 00:59:00,
2013-03-15 21:04:00,50.5,33.1,29.62,NW,315,0.0,0.0,51,0.00,,---,0.00,VWS V13.01,2013-03-16 01:04:00,
2013-03-15 21:09:00,50.4,32.9,29.62,NW,315,0.0,0.0,51,0.00,,---,0.00,VWS V13.01,2013-03-16 01:09:00,
2013-03-15 21:14:00,50.4,32.9,29.62,NW,315,0.0,0.0,51,0.00,,---,0.00,VWS V13.01,2013-03-16 01:14:00,
2013-03-15 21:19:00,50.2,32.8,29.62,NW,315,0.0,0.0,51,0.00,,---,0.00,VWS V13.01,2013-03-16 01:19:00,
2013-03-15 21:24:00,50.0,32.6,29.62,NW,315,0.0,0.0,51,0.00,,---,0.00,VWS V13.01,2013-03-16 01:24:00,
2013-03-15 21:29:00,49.8,32.4,29.62,NW,315,0.0,0.0,51,0.00,,---,0.00,VWS V13.01,2013-03-16 01:29:00,
2013-03-15 21:34:00,49.8,32.4,29.62,NW,315,0.0,0.0,51,0.00,,---,0.00,VWS V13.01,2013-03-16 01:34:00,
2013-03-15 21:39:00,49.6,32.3,29.62,NW,315,0.0,0.0,51,0.00,,---,0.00,VWS V13.01,2013-03-16 01:39:00,
2013-03-15 21:44:00,49.6,32.3,29.62,NW,315,0.0,0.0,51,0.00,,---,0.00,VWS V13.01,2013-03-16 01:44:00,
2013-03-15 21:49:00,49.5,32.1,29.62,NW,315,0.0,0.0,51,0.00,,---,0.00,VWS V13.01,2013-03-16 01:49:00,
2013-03-15 21:54:00,49.3,31.9,29.62,NW,315,0.0,0.0,51,0.00,,---,0.00,VWS V13.01,2013-03-16 01:54:00,
2013-03-15 21:59:00,49.1,31.8,29.62,NW,315,0.0,0.0,51,0.00,,---,0.00,VWS V13.01,2013-03-16 01:59:00,
2013-03-15 22:04:00,48.9,31.6,29.62,NW,315,0.0,0.0,51,0.00,,---,0.00,VWS V13.01,2013-03-16 02:04:00,
2013-03-15 22:09:00,48.7,32.4,29.62,NW,315,0.0,0.0,53,0.00,,---,0.00,VWS V13.01,2013-03-16 02:09:00,
2013-03-15 22:14:00,48.6,32.2,29.62,NW,315,0.0,0.0,53,0.00,,---,0.00,VWS V13.01,2013-03-16 02:14:00,
2013-03-15 22:20:00,48.4,32.0,29.62,NW,315,0.0,0.0,53,0.00,,---,0.00,VWS V13.01,2013-03-16 02:20:00,
2013-03-15 22:25:00,48.4,32.0,29.62,NW,315,0.0,0.0,53,0.00,,---,0.00,VWS V13.01,2013-03-16 02:25:00,
2013-03-15 22:30:00,48.2,31.9,29.62,NW,315,0.0,0.0,53,0.00,,---,0.00,VWS V13.01,2013-03-16 02:30:00,
2013-03-15 22:35:00,48.2,31.9,29.62,NW,315,0.0,0.0,53,0.00,,---,0.00,VWS V13.01,2013-03-16 02:35:00,
2013-03-15 22:40:00,48.6,32.2,29.62,NW,315,0.0,0.0,53,0.00,,---,0.00,VWS V13.01,2013-03-16 02:40:00,
2013-03-15 22:45:00,49.1,32.7,29.62,NW,315,0.0,2.2,53,0.00,,---,0.00,VWS V13.01,2013-03-16 02:45:00,
2013-03-15 22:50:00,50.4,33.9,29.62,NW,315,5.4,5.4,53,0.00,,---,0.00,VWS V13.01,2013-03-16 02:50:00,
2013-03-15 22:55:00,51.1,33.6,29.62,NW,315,0.0,0.0,51,0.00,,---,0.00,VWS V13.01,2013-03-16 02:55:00,
2013-03-15 23:00:00,52.3,34.3,29.62,NW,315,0.0,5.8,50,0.00,,---,0.00,VWS V13.01,2013-03-16 03:00:00,
2013-03-15 23:05:00,52.7,34.6,29.62,NW,315,0.0,3.6,50,0.00,,---,0.00,VWS V13.01,2013-03-16 03:05:00,
2013-03-15 23:10:00,52.9,34.8,29.62,NW,315,6.3,6.3,50,0.00,,---,0.00,VWS V13.01,2013-03-16 03:10:00,
2013-03-15 23:15:00,52.9,34.8,29.62,NW,315,5.4,5.4,50,0.00,,---,0.00,VWS V13.01,2013-03-16 03:15:00,
2013-03-15 23:20:00,53.1,34.9,29.62,NW,315,5.4,5.4,50,0.00,,---,0.00,VWS V13.01,2013-03-16 03:20:00,
2013-03-15 23:25:00,53.4,35.3,29.62,WNW,292,0.0,3.1,50,0.00,,---,0.00,VWS V13.01,2013-03-16 03:25:00,
2013-03-15 23:30:00,53.2,35.1,29.59,North,0,7.2,7.2,50,0.00,,---,0.00,VWS V13.01,2013-03-16 03:30:00,
2013-03-15 23:35:00,53.2,35.1,29.59,North,0,0.0,0.0,50,0.00,,---,0.00,VWS V13.01,2013-03-16 03:35:00,
2013-03-15 23:40:00,53.2,35.1,29.59,NW,315,5.4,5.4,50,0.00,,---,0.00,VWS V13.01,2013-03-16 03:40:00,
2013-03-15 23:45:00,53.1,34.9,29.59,NW,315,0.0,0.0,50,0.00,,---,0.00,VWS V13.01,2013-03-16 03:45:00,
2013-03-15 23:50:00,52.7,34.6,29.59,NW,315,5.4,5.4,50,0.00,,---,0.00,VWS V13.01,2013-03-16 03:50:00,
2013-03-15 23:55:00,52.7,34.6,29.59,NW,315,0.0,3.1,50,0.00,,---,0.00,VWS V13.01,2013-03-16 03:55:00,